Simultaneous Nadir Overpasses (SNOs) Predictions

Prediction of SNOs between LANDSAT-8 and METOP-B Satellite Orbit:

Table of predicted SNOs for the next 14.0 days since TLE Epoch: 2/18/2017
Index Date (LANDSAT-8) Time (LANDSAT-8) Lat,Lon (LANDSAT-8) SZA (LANDSAT-8 ) Date (METOP-B) Time (METOP-B) Lat,Lon (METOP-B) SZA (METOP-B ) Distance(km) Time Diff (sec)
1 02/18/2017 05:46:18 81.11, 132.80 94.27 02/18/2017 05:46:10 81.10, 132.70 94.25 1.95 8
2 02/18/2017 06:35:44 -81.13, -59.29 85.71 02/18/2017 06:36:49 -81.12, -59.37 85.69 1.51 65
3 02/21/2017 00:31:06 -81.09, 31.26 86.77 02/21/2017 00:29:52 -81.08, 31.29 86.79 0.68 74
4 02/21/2017 01:20:32 81.09,-161.01 93.24 02/21/2017 01:20:32 81.10,-161.02 93.24 0.48 0
5 02/21/2017 02:09:57 -81.14, 7.28 86.69 02/21/2017 02:11:10 -81.13, 7.29 86.66 0.50 73
6 02/23/2017 20:05:20 -81.09, 97.79 87.77 02/23/2017 20:04:14 -81.09, 97.95 87.78 2.66 66
7 02/23/2017 20:54:46 81.10, -94.51 92.23 02/23/2017 20:54:54 81.11, -94.37 92.25 2.45 8
8 02/26/2017 15:39:35 -81.07, 163.92 88.85 02/26/2017 15:38:38 -81.07, 163.85 88.88 1.36 57
9 02/26/2017 16:29:00 81.10, -28.04 91.20 02/26/2017 16:29:17 81.10, -28.12 91.20 1.40 17
10 03/01/2017 11:13:47 -81.10,-129.26 89.84 03/01/2017 11:12:58 -81.10,-129.15 89.85 1.96 49




NCC Satellite Simultaneous Nadir Overpasses (SNOs) Prediction Service
